SHASTA DAM (USBR) (SHA)

Elevation: 1067' · SACRAMENTO R basin · Operator: US Bureau of Reclamation

Provisional data, subject to change.
Query executed Saturday at 4:08:42   clock

Select a sensor type for a plot of data.
Note: Reservoir Flows are daily averages.

Earlier

Date RES ELE    STORAGE    RES CHG    TOC STO    ABV TOC    OUTFLOW    INFLOW    EVAP    FNF    RIV REL    PPT INC    RAIN    SPILL    DIS PWR   
 FEET   AF   AF   AF   AF   CFS   CFS   CFS   CFS   CFS   INCHES   INCHES   CFS   CFS  
03/20/2015 992.41 2666660 1463 4500768 -1834108 3266 4090 86 4156 0 0.00 45.15 0 3266
03/21/2015 992.37 2665824 -836 4514136 -1848312 2986 2706 141 4165 0 0.00 45.15 0 2986
03/22/2015 992.44 2667287 1463 4523900 -1856614 2582 3394 74 4795 0 0.00 45.15 0 2582
03/23/2015 992.48 2668123 836 4531958 -1863836 3094 3564 49 4606 0 0.44 45.59 0 3094
03/24/2015 992.51 2668751 628 4538872 -1870121 3216 3582 49 4258 0 0.44 46.03 0 3216
03/25/2015 992.66 2671886 3135 4542673 -1870787 2866 4496 49 3827 0 0.00 46.03 0 2866
03/26/2015 992.78 2674395 2509 4545702 -1871307 3285 4599 49 3693 0 0.00 46.03 0 3285
03/27/2015 992.90 2676904 2509 4549012 -1872108 2877 4216 74 4816 0 0.00 46.03 0 2877
03/28/2015 992.98 2678576 1672 -- -- 3161 4244 240 4438 0 0.00 46.03 0 3161
03/29/2015 993.20 2683198 4622 4552100 -- 2013 4540 197 4021 0 0.00 46.03 0 2013
03/30/2015 993.36 2686561 3363 4552100 -- 3244 5155 216 3886 0 0.00 46.03 0 3244
03/31/2015 993.48 2689083 2522 4552100 -- 2729 4204 204 3999 0 0.00 46.03 0 2729
04/01/2015 993.51 2689714 631 4552100 -1862386 3189 3692 185 3561 0 0.00 46.03 0 3189
04/02/2015 993.54 2690344 630 4552100 -1861756 3141 3533 74 3698 0 0.00 46.03 0 3141
04/03/2015 993.70 2693707 3363 4552100 -1858393 2783 4589 111 3924 0 0.00 46.03 0 2783
04/04/2015 993.75 2694758 1051 4552100 -1857342 2857 3579 192 3497 0 0.00 46.03 0 2857
04/05/2015 993.87 2697281 2523 4552100 -1854819 2888 4290 130 4190 0 0.00 46.03 0 2888
04/06/2015 993.98 2699593 2312 4552100 -1852507 2830 4021 25 3665 0 0.20 46.23 0 2830
04/07/2015 994.20 2704240 4647 4552100 -1847860 2978 5383 62 5962 0 0.70 46.93 0 2978
04/08/2015 994.27 2705719 1479 4552100 -1846381 3424 4182 12 4314 0 1.15 48.08 0 3424
04/09/2015 994.48 2710157 4438 4552100 -1841943 2203 4452 12 4344 0 0.00 48.08 0 2203
04/10/2015 994.61 2712904 2747 4552100 -1839196 2811 4289 93 4137 0 0.00 48.08 0 2811
04/11/2015 994.65 2713749 845 4552100 -1838351 2586 3167 155 3826 0 0.00 48.08 0 2586
04/12/2015 994.80 2716919 -- 4552100 -1835181 2199 3859 62 3383 0 0.00 48.08 0 2199
04/13/2015 994.83 2717553 634 4552100 -1834547 3105 3531 106 3452 0 0.00 48.08 0 3105
04/14/2015 994.96 2720301 2748 4552100 -1831799 2776 4279 118 3639 0 0.00 48.08 0 2776
04/15/2015 995.04 2721996 1695 4552100 -1830104 3051 4024 118 3786 0 0.00 48.08 0 3051
04/16/2015 995.04 2721996 0 4552100 -1830104 3472 3590 118 3587 758 0.00 48.08 0 2714
04/17/2015 -- -- -- -- -- -- -- -- -- -- -- -- -- --
04/18/2015 -- -- -- -- -- -- -- -- -- -- -- -- -- --

Later | Latest

Warning! This data is preliminary and subject to revision.

Show SHA Map | Plot SHA Data | 1 Month SHA Data | Real-Time SHA Data | SHA Info